Location: Coed Ely
(51.5661°N, 3.4150°W)
Time: 20:14:43
(UTC+00:00)

Cosmos 1689 Rocket - Pass Details

Date: 28 January 2021
Orbit: 353 x 367 km, 97.5° (Epoch: 27 February)

Event Time Altitude Azimuth Distance (km) Brightness Sun altitude
Exits shadow 19:13:45 26° 204° (SSW) 752 3.7 -21.2°
Drops below altitude 10° 19:15:07 10° 200° (SSW) 1,326 5.0 -21.5°
Sets 19:17:02 0° 199° (SSW) 2,164 6.1 -21.8°
